Time,TemperatureF,DewpointF,PressureIn,WindDirection,WindDirectionDegrees,WindSpeedMPH,WindSpeedGustMPH,Humidity,HourlyPrecipIn,Conditions,Clouds,dailyrainin,SoftwareType,DateUTC
2013-01-09 00:00:00,47.7,27.4,30.11,East,91,0.0,0.0,45,0.00,,OVC034,0.00,VWS V14.01,2013-01-09 05:00:00,
2013-01-09 00:01:00,47.7,27.4,30.11,East,91,0.0,0.0,45,0.00,,OVC020,0.00,VWS V14.01,2013-01-09 05:01:00,
2013-01-09 00:03:00,47.7,27.4,30.11,East,91,0.0,0.0,45,0.00,,OVC020,0.00,VWS V14.01,2013-01-09 05:03:00,
2013-01-09 00:08:00,47.7,27.4,30.11,East,91,0.0,0.0,45,0.00,,OVC020,0.00,VWS V14.01,2013-01-09 05:08:00,
2013-01-09 00:13:00,47.7,27.4,30.11,East,91,0.0,0.0,45,0.00,,OVC020,0.00,VWS V14.01,2013-01-09 05:13:00,
2013-01-09 00:18:00,47.7,27.4,30.11,East,91,0.0,0.0,45,0.00,,OVC020,0.00,VWS V14.01,2013-01-09 05:18:00,
2013-01-09 00:23:00,47.5,27.8,30.11,East,91,0.0,0.0,46,0.00,,OVC020,0.00,VWS V14.01,2013-01-09 05:23:00,
2013-01-09 00:28:00,47.7,27.9,30.11,East,91,0.0,0.0,46,0.00,,OVC020,0.00,VWS V14.01,2013-01-09 05:28:00,
2013-01-09 00:34:00,47.7,28.4,30.11,East,91,0.0,0.0,47,0.00,,OVC020,0.00,VWS V14.01,2013-01-09 05:34:00,
2013-01-09 00:39:00,47.7,28.4,30.11,East,91,0.0,0.0,47,0.00,,OVC020,0.00,VWS V14.01,2013-01-09 05:39:00,
2013-01-09 00:44:00,47.7,28.4,30.14,ESE,116,0.0,0.0,47,0.00,,OVC020,0.00,VWS V14.01,2013-01-09 05:44:00,
2013-01-09 00:49:00,47.8,28.6,30.14,ESE,116,0.0,0.0,47,0.00,,OVC020,0.00,VWS V14.01,2013-01-09 05:49:00,
2013-01-09 00:54:00,47.8,29.1,30.14,ESE,116,0.0,0.0,48,0.00,,OVC020,0.00,VWS V14.01,2013-01-09 05:54:00,
2013-01-09 00:59:00,47.8,29.1,30.14,ESE,116,0.0,0.0,48,0.00,,OVC020,0.00,VWS V14.01,2013-01-09 05:59:00,
2013-01-09 01:04:00,47.8,29.1,30.14,ESE,116,0.0,0.0,48,0.00,,OVC007,0.00,VWS V14.01,2013-01-09 06:04:00,
2013-01-09 01:09:00,47.8,29.1,30.14,ESE,116,0.0,0.0,48,0.00,,OVC007,0.00,VWS V14.01,2013-01-09 06:09:00,
2013-01-09 01:14:00,47.8,29.1,30.14,ESE,116,0.0,0.0,48,0.00,,OVC007,0.00,VWS V14.01,2013-01-09 06:14:00,
2013-01-09 01:19:00,48.0,29.8,30.14,ESE,116,0.0,0.0,49,0.00,,OVC007,0.00,VWS V14.01,2013-01-09 06:19:00,
2013-01-09 01:24:00,48.0,29.8,30.14,ESE,116,0.0,0.0,49,0.00,,OVC007,0.00,VWS V14.01,2013-01-09 06:24:00,
2013-01-09 01:29:00,48.0,29.8,30.14,ESE,116,0.0,0.0,49,0.00,,OVC007,0.00,VWS V14.01,2013-01-09 06:29:00,
2013-01-09 01:34:00,48.0,29.8,30.14,ESE,116,0.0,0.0,49,0.00,,OVC007,0.00,VWS V14.01,2013-01-09 06:34:00,
2013-01-09 01:39:00,48.0,30.3,30.14,ESE,116,0.0,0.0,50,0.00,,OVC007,0.00,VWS V14.01,2013-01-09 06:39:00,
2013-01-09 01:45:00,48.2,30.5,30.14,ESE,116,0.0,0.0,50,0.00,,OVC007,0.00,VWS V14.01,2013-01-09 06:45:00,
2013-01-09 01:50:00,48.2,30.5,30.14,ESE,116,0.0,0.0,50,0.00,,OVC007,0.00,VWS V14.01,2013-01-09 06:50:00,
2013-01-09 01:55:00,48.2,30.5,30.14,ESE,116,0.0,0.0,50,0.00,,OVC007,0.00,VWS V14.01,2013-01-09 06:55:00,
2013-01-09 02:00:00,48.6,33.1,30.14,ESE,116,2.2,2.2,55,0.00,,OVC007,0.00,VWS V14.01,2013-01-09 07:00:00,
2013-01-09 02:05:00,48.7,35.1,30.14,ESE,116,0.0,0.0,59,0.00,,OVC006,0.00,VWS V14.01,2013-01-09 07:05:00,
2013-01-09 02:10:00,48.9,35.7,30.14,ESE,116,0.0,0.0,60,0.00,,OVC006,0.00,VWS V14.01,2013-01-09 07:10:00,
2013-01-09 02:15:00,49.1,35.4,30.14,ESE,116,0.0,0.0,59,0.00,,OVC006,0.00,VWS V14.01,2013-01-09 07:15:00,
2013-01-09 02:20:00,49.1,35.4,30.14,ESE,116,0.0,0.0,59,0.00,,OVC006,0.00,VWS V14.01,2013-01-09 07:20:00,
2013-01-09 02:25:00,49.3,36.0,30.14,ESE,116,0.0,0.0,60,0.00,,OVC006,0.00,VWS V14.01,2013-01-09 07:25:00,
2013-01-09 02:30:00,49.3,36.4,30.14,ESE,116,0.0,0.0,61,0.00,,OVC006,0.00,VWS V14.01,2013-01-09 07:30:00,
2013-01-09 02:35:00,49.6,37.2,30.14,ESE,116,0.0,0.0,62,0.00,,OVC006,0.00,VWS V14.01,2013-01-09 07:35:00,
2013-01-09 02:40:00,49.6,37.2,30.14,ESE,116,0.0,0.0,62,0.00,,OVC006,0.00,VWS V14.01,2013-01-09 07:40:00,
2013-01-09 02:46:00,49.6,37.2,30.14,ESE,116,0.0,0.0,62,0.00,,OVC006,0.00,VWS V14.01,2013-01-09 07:46:00,
2013-01-09 02:51:00,49.8,38.2,30.14,North,357,0.0,0.0,64,0.00,,OVC006,0.00,VWS V14.01,2013-01-09 07:51:00,
2013-01-09 02:56:00,49.8,38.5,30.14,North,357,0.0,0.0,65,0.00,,OVC006,0.00,VWS V14.01,2013-01-09 07:56:00,
2013-01-09 03:01:00,50.2,39.3,30.14,North,0,0.0,0.0,66,0.00,,OVC006,0.00,VWS V14.01,2013-01-09 08:01:00,
2013-01-09 03:06:00,50.2,39.3,30.14,North,0,0.0,0.0,66,0.00,,OVC006,0.00,VWS V14.01,2013-01-09 08:06:00,
2013-01-09 03:11:00,50.4,39.5,30.14,North,357,0.0,0.0,66,0.00,,OVC006,0.00,VWS V14.01,2013-01-09 08:11:00,
2013-01-09 03:16:00,50.4,39.5,30.14,North,0,0.0,0.0,66,0.00,,OVC006,0.00,VWS V14.01,2013-01-09 08:16:00,
2013-01-09 03:21:00,50.4,39.5,30.14,North,0,0.0,0.0,66,0.00,,OVC006,0.00,VWS V14.01,2013-01-09 08:21:00,
2013-01-09 03:26:00,50.2,38.9,30.14,North,357,0.0,0.0,65,0.00,,OVC006,0.00,VWS V14.01,2013-01-09 08:26:00,
2013-01-09 03:31:00,50.2,38.5,30.14,North,0,0.0,0.0,64,0.00,,OVC006,0.00,VWS V14.01,2013-01-09 08:31:00,
2013-01-09 03:37:00,50.0,38.3,30.14,North,357,0.0,0.0,64,0.00,,OVC006,0.00,VWS V14.01,2013-01-09 08:37:00,
2013-01-09 03:42:00,50.2,38.9,30.14,North,0,0.0,0.0,65,0.00,,OVC006,0.00,VWS V14.01,2013-01-09 08:42:00,
2013-01-09 03:47:00,50.2,38.9,30.14,North,357,0.0,0.0,65,0.00,,OVC006,0.00,VWS V14.01,2013-01-09 08:47:00,
2013-01-09 03:52:00,50.0,38.7,30.14,North,0,0.0,0.0,65,0.00,,OVC006,0.00,VWS V14.01,2013-01-09 08:52:00,
2013-01-09 03:57:00,50.0,38.7,30.14,North,0,0.0,0.0,65,0.00,,OVC006,0.00,VWS V14.01,2013-01-09 08:57:00,
2013-01-09 04:02:00,50.0,38.7,30.14,North,357,0.0,0.0,65,0.00,,OVC006,0.00,VWS V14.01,2013-01-09 09:02:00,
2013-01-09 04:07:00,49.8,38.5,30.14,North,0,0.0,0.0,65,0.00,,OVC006,0.00,VWS V14.01,2013-01-09 09:07:00,
2013-01-09 04:12:00,49.8,38.5,30.14,North,357,0.0,0.0,65,0.00,,OVC006,0.00,VWS V14.01,2013-01-09 09:12:00,
2013-01-09 04:17:00,50.2,39.3,30.14,North,357,0.0,0.0,66,0.00,,OVC006,0.00,VWS V14.01,2013-01-09 09:17:00,
2013-01-09 04:22:00,50.2,39.3,30.14,North,0,0.0,0.0,66,0.00,,OVC006,0.00,VWS V14.01,2013-01-09 09:22:00,
2013-01-09 04:28:00,50.5,39.6,30.14,North,357,0.0,0.0,66,0.00,,OVC006,0.00,VWS V14.01,2013-01-09 09:28:00,
2013-01-09 04:33:00,50.7,39.8,30.14,North,0,0.0,0.0,66,0.00,,OVC006,0.00,VWS V14.01,2013-01-09 09:33:00,
2013-01-09 04:38:00,50.7,39.8,30.14,North,0,0.0,0.0,66,0.00,,OVC006,0.00,VWS V14.01,2013-01-09 09:38:00,
2013-01-09 04:43:00,50.7,39.4,30.14,North,0,0.0,0.0,65,0.00,,OVC006,0.00,VWS V14.01,2013-01-09 09:43:00,
2013-01-09 04:48:00,50.5,39.2,30.11,North,0,0.0,0.0,65,0.00,,OVC006,0.00,VWS V14.01,2013-01-09 09:48:00,
2013-01-09 04:53:00,50.7,39.4,30.11,North,0,0.0,0.0,65,0.00,,OVC006,0.00,VWS V14.01,2013-01-09 09:53:00,
2013-01-09 04:58:00,50.5,39.2,30.14,North,0,0.0,0.0,65,0.00,,OVC006,0.00,VWS V14.01,2013-01-09 09:58:00,
2013-01-09 05:03:00,50.4,38.7,30.14,North,0,0.0,0.0,64,0.00,,OVC006,0.00,VWS V14.01,2013-01-09 10:03:00,
2013-01-09 05:08:00,50.4,39.1,30.14,NW,316,0.0,0.0,65,0.00,,OVC006,0.00,VWS V14.01,2013-01-09 10:08:00,
2013-01-09 05:13:00,50.4,39.1,30.14,NW,316,0.0,0.0,65,0.00,,OVC006,0.00,VWS V14.01,2013-01-09 10:13:00,
2013-01-09 05:18:00,50.4,39.5,30.14,NW,316,0.0,0.0,66,0.00,,OVC006,0.00,VWS V14.01,2013-01-09 10:18:00,
2013-01-09 05:23:00,50.4,39.5,30.14,South,173,0.0,0.0,66,0.00,,OVC006,0.00,VWS V14.01,2013-01-09 10:23:00,
2013-01-09 05:29:00,50.5,39.6,30.14,South,173,0.0,0.0,66,0.00,,OVC006,0.00,VWS V14.01,2013-01-09 10:29:00,
2013-01-09 05:34:00,50.5,39.6,30.14,South,173,0.0,0.0,66,0.00,,OVC006,0.00,VWS V14.01,2013-01-09 10:34:00,
2013-01-09 05:39:00,50.5,39.6,30.14,SW,223,0.0,0.0,66,0.00,,OVC006,0.00,VWS V14.01,2013-01-09 10:39:00,
2013-01-09 05:44:00,50.7,39.8,30.14,SSE,148,0.0,0.0,66,0.00,,OVC006,0.00,VWS V14.01,2013-01-09 10:44:00,
2013-01-09 05:49:00,50.7,39.8,30.14,SSE,148,0.0,0.0,66,0.00,,OVC006,0.00,VWS V14.01,2013-01-09 10:49:00,
2013-01-09 05:54:00,50.7,39.8,30.14,SSE,148,0.0,0.0,66,0.00,,OVC006,0.00,VWS V14.01,2013-01-09 10:54:00,
2013-01-09 05:59:00,50.7,39.8,30.14,SSE,148,0.0,0.0,66,0.00,,OVC006,0.00,VWS V14.01,2013-01-09 10:59:00,
2013-01-09 06:04:00,50.5,39.6,30.14,SSE,148,0.0,0.0,66,0.00,,OVC006,0.00,VWS V14.01,2013-01-09 11:04:00,
2013-01-09 06:09:00,50.5,39.6,30.14,SSE,148,0.0,0.0,66,0.00,,OVC006,0.00,VWS V14.01,2013-01-09 11:09:00,
2013-01-09 06:15:00,50.7,39.8,30.14,SSE,148,0.0,0.0,66,0.00,,OVC006,0.00,VWS V14.01,2013-01-09 11:15:00,
2013-01-09 06:20:00,50.9,40.0,30.14,SSE,148,0.0,0.0,66,0.00,,OVC006,0.00,VWS V14.01,2013-01-09 11:20:00,
2013-01-09 06:25:00,51.1,40.5,30.14,SSE,148,0.0,0.0,67,0.00,,OVC006,0.00,VWS V14.01,2013-01-09 11:25:00,
2013-01-09 06:30:00,51.1,40.5,30.14,SSE,148,0.0,0.0,67,0.00,,OVC006,0.00,VWS V14.01,2013-01-09 11:30:00,
2013-01-09 06:35:00,51.1,40.5,30.14,North,2,0.0,0.0,67,0.00,,OVC006,0.00,VWS V14.01,2013-01-09 11:35:00,
2013-01-09 06:40:00,51.1,40.5,30.14,North,2,0.0,0.0,67,0.00,,OVC006,0.00,VWS V14.01,2013-01-09 11:40:00,
2013-01-09 06:45:00,51.1,40.5,30.14,North,2,0.0,0.0,67,0.00,,OVC006,0.00,VWS V14.01,2013-01-09 11:45:00,
2013-01-09 06:50:00,51.1,40.5,30.14,North,2,0.0,0.0,67,0.00,,OVC006,0.00,VWS V14.01,2013-01-09 11:50:00,
2013-01-09 06:55:00,51.1,40.5,30.14,North,2,0.0,0.0,67,0.00,,OVC006,0.00,VWS V14.01,2013-01-09 11:55:00,
2013-01-09 07:00:00,51.1,40.5,30.14,North,2,0.0,0.0,67,0.00,,OVC006,0.00,VWS V14.01,2013-01-09 12:00:00,
2013-01-09 07:05:00,51.1,40.5,30.14,North,2,0.0,0.0,67,0.00,,OVC006,0.00,VWS V14.01,2013-01-09 12:05:00,
2013-01-09 07:11:00,51.1,40.5,30.14,North,2,0.0,0.0,67,0.00,,OVC006,0.00,VWS V14.01,2013-01-09 12:11:00,
2013-01-09 07:16:00,51.1,40.5,30.16,North,2,0.0,0.0,67,0.00,,OVC006,0.00,VWS V14.01,2013-01-09 12:16:00,
2013-01-09 07:21:00,51.3,40.7,30.16,NNE,13,0.0,0.0,67,0.00,,OVC006,0.00,VWS V14.01,2013-01-09 12:21:00,
2013-01-09 07:26:00,51.4,40.9,30.16,NNE,13,0.0,0.0,67,0.00,,OVC006,0.00,VWS V14.01,2013-01-09 12:26:00,
2013-01-09 07:31:00,51.6,41.0,30.16,NNE,13,0.0,0.0,67,0.00,,OVC006,0.00,VWS V14.01,2013-01-09 12:31:00,
2013-01-09 07:36:00,51.6,41.0,30.16,WNW,283,0.0,0.0,67,0.00,,OVC006,0.00,VWS V14.01,2013-01-09 12:36:00,
2013-01-09 07:41:00,51.8,41.2,30.16,WNW,283,0.0,0.0,67,0.00,,OVC006,0.00,VWS V14.01,2013-01-09 12:41:00,
2013-01-09 07:46:00,51.8,40.8,30.16,WNW,283,0.0,0.0,66,0.00,,OVC006,0.00,VWS V14.01,2013-01-09 12:46:00,
2013-01-09 07:51:00,51.8,40.8,30.16,WNW,283,0.0,0.0,66,0.00,,OVC006,0.00,VWS V14.01,2013-01-09 12:51:00,
2013-01-09 07:56:00,51.6,39.8,30.16,WNW,292,0.0,0.0,64,0.00,,OVC006,0.00,VWS V14.01,2013-01-09 12:56:00,
2013-01-09 08:01:00,51.6,39.8,30.16,WNW,292,0.0,0.0,64,0.00,,,0.00,VWS V14.01,2013-01-09 13:01:00,
2013-01-09 08:06:00,51.6,40.2,30.16,WNW,292,0.0,0.0,65,0.00,,,0.00,VWS V14.01,2013-01-09 13:06:00,
2013-01-09 08:12:00,51.4,39.7,30.16,NW,310,0.0,0.0,64,0.00,,,0.00,VWS V14.01,2013-01-09 13:12:00,
2013-01-09 08:17:00,51.6,39.8,30.16,NW,311,0.0,0.0,64,0.00,,,0.00,VWS V14.01,2013-01-09 13:17:00,
2013-01-09 08:22:00,51.8,40.0,30.16,NW,311,0.0,0.0,64,0.00,,,0.00,VWS V14.01,2013-01-09 13:22:00,
2013-01-09 08:27:00,52.3,40.9,30.16,NW,311,0.0,0.0,65,0.00,,,0.00,VWS V14.01,2013-01-09 13:27:00,
2013-01-09 08:32:00,52.5,41.1,30.16,NW,311,0.0,0.0,65,0.00,,,0.00,VWS V14.01,2013-01-09 13:32:00,
2013-01-09 08:37:00,52.9,41.0,30.16,West,272,0.0,0.0,64,0.00,,,0.00,VWS V14.01,2013-01-09 13:37:00,
2013-01-09 08:42:00,52.9,40.6,30.16,West,272,0.0,0.0,63,0.00,,,0.00,VWS V14.01,2013-01-09 13:42:00,
2013-01-09 08:47:00,52.7,40.1,30.19,West,277,0.0,0.0,62,0.00,,,0.00,VWS V14.01,2013-01-09 13:47:00,
2013-01-09 08:52:00,52.5,39.0,30.19,SSE,157,0.0,0.0,60,0.00,,,0.00,VWS V14.01,2013-01-09 13:52:00,
2013-01-09 08:57:00,52.5,39.0,30.19,SSE,157,0.0,0.0,60,0.00,,,0.00,VWS V14.01,2013-01-09 13:57:00,
2013-01-09 09:02:00,52.5,38.6,30.19,SSE,157,0.0,0.0,59,0.00,,,0.00,VWS V14.01,2013-01-09 14:02:00,
2013-01-09 09:07:00,52.7,38.3,30.19,SSE,157,0.0,0.0,58,0.00,,,0.00,VWS V14.01,2013-01-09 14:07:00,
2013-01-09 09:12:00,53.4,40.3,30.19,SSE,157,0.0,0.0,61,0.00,,,0.00,VWS V14.01,2013-01-09 14:12:00,
2013-01-09 09:17:00,53.8,39.4,30.19,SSE,157,0.0,0.0,58,0.00,,,0.00,VWS V14.01,2013-01-09 14:17:00,
2013-01-09 09:23:00,53.8,39.4,30.19,ENE,65,4.0,4.0,58,0.00,,,0.00,VWS V14.01,2013-01-09 14:23:00,
2013-01-09 09:28:00,53.4,37.2,30.19,ENE,68,0.0,0.0,54,0.00,,,0.00,VWS V14.01,2013-01-09 14:28:00,
2013-01-09 09:33:00,53.2,36.6,30.19,East,82,2.7,2.7,53,0.00,,,0.00,VWS V14.01,2013-01-09 14:33:00,
2013-01-09 09:38:00,52.7,36.1,30.19,East,92,0.0,2.7,53,0.00,,,0.00,VWS V14.01,2013-01-09 14:38:00,
2013-01-09 09:43:00,52.3,36.2,30.19,ESE,111,0.0,0.0,54,0.00,,,0.00,VWS V14.01,2013-01-09 14:43:00,
2013-01-09 09:48:00,52.3,36.2,30.19,ESE,111,0.0,0.0,54,0.00,,,0.00,VWS V14.01,2013-01-09 14:48:00,
2013-01-09 09:53:00,52.0,36.3,30.19,ESE,111,2.2,2.2,55,0.00,,,0.00,VWS V14.01,2013-01-09 14:53:00,
2013-01-09 09:58:00,52.0,36.3,30.19,NNE,32,0.0,0.0,55,0.00,,,0.00,VWS V14.01,2013-01-09 14:58:00,
2013-01-09 10:03:00,52.0,37.2,30.19,NE,36,2.7,2.7,57,0.00,,,0.00,VWS V14.01,2013-01-09 15:03:00,
2013-01-09 10:08:00,51.8,37.5,30.19,NE,53,0.0,0.0,58,0.00,,,0.00,VWS V14.01,2013-01-09 15:08:00,
2013-01-09 10:14:00,52.0,39.0,30.19,NNE,17,0.0,0.0,61,0.00,,,0.00,VWS V14.01,2013-01-09 15:14:00,
2013-01-09 10:19:00,52.3,40.5,30.19,NNE,15,0.0,3.1,64,0.00,,,0.00,VWS V14.01,2013-01-09 15:19:00,
2013-01-09 10:24:00,52.5,40.7,30.19,NE,55,0.0,0.0,64,0.00,,,0.00,VWS V14.01,2013-01-09 15:24:00,
2013-01-09 10:29:00,52.9,41.0,30.19,NE,55,0.0,0.0,64,0.00,,,0.00,VWS V14.01,2013-01-09 15:29:00,
2013-01-09 10:34:00,53.1,40.8,30.19,NE,55,0.0,0.0,63,0.00,,,0.00,VWS V14.01,2013-01-09 15:34:00,
2013-01-09 10:39:00,53.2,41.0,30.19,NE,55,0.0,0.0,63,0.00,,,0.00,VWS V14.01,2013-01-09 15:39:00,
2013-01-09 10:44:00,53.2,40.6,30.19,NE,38,0.0,0.0,62,0.00,,,0.00,VWS V14.01,2013-01-09 15:44:00,
2013-01-09 10:49:00,53.4,40.3,30.19,NE,38,0.0,0.0,61,0.00,,,0.00,VWS V14.01,2013-01-09 15:49:00,
2013-01-09 10:54:00,53.4,39.9,30.19,ESE,103,3.6,3.6,60,0.00,,,0.00,VWS V14.01,2013-01-09 15:54:00,
2013-01-09 11:00:00,53.6,39.2,30.19,ESE,103,0.0,0.0,58,0.00,,,0.00,VWS V14.01,2013-01-09 16:00:00,
2013-01-09 11:05:00,53.6,38.8,30.19,ESE,103,0.0,0.0,57,0.00,,OVC011,0.00,VWS V14.01,2013-01-09 16:05:00,
2013-01-09 11:10:00,53.8,38.9,30.19,ESE,103,0.0,0.0,57,0.00,,OVC011,0.00,VWS V14.01,2013-01-09 16:10:00,
2013-01-09 11:15:00,53.6,38.3,30.19,West,275,0.0,4.0,56,0.00,,OVC011,0.00,VWS V14.01,2013-01-09 16:15:00,
2013-01-09 11:20:00,54.0,37.7,30.19,SSW,211,0.0,0.0,54,0.00,,OVC011,0.00,VWS V14.01,2013-01-09 16:20:00,
2013-01-09 11:25:00,54.1,37.9,30.19,SSW,206,0.0,0.0,54,0.00,,OVC011,0.00,VWS V14.01,2013-01-09 16:25:00,
2013-01-09 11:30:00,54.1,36.9,30.19,South,190,0.0,4.0,52,0.00,,OVC011,0.00,VWS V14.01,2013-01-09 16:30:00,
2013-01-09 11:35:00,54.3,35.6,30.19,South,190,0.0,0.0,49,0.00,,OVC011,0.00,VWS V14.01,2013-01-09 16:35:00,
2013-01-09 11:40:00,54.5,34.7,30.19,NW,309,0.0,0.0,47,0.00,,OVC011,0.00,VWS V14.01,2013-01-09 16:40:00,
2013-01-09 11:46:00,54.7,35.4,30.19,NW,309,0.0,0.0,48,0.00,,OVC011,0.00,VWS V14.01,2013-01-09 16:46:00,
2013-01-09 11:51:00,54.7,34.9,30.19,SE,126,3.1,3.1,47,0.00,,OVC011,0.00,VWS V14.01,2013-01-09 16:51:00,
2013-01-09 11:56:00,54.5,34.7,30.19,West,265,2.7,2.7,47,0.00,,OVC011,0.00,VWS V14.01,2013-01-09 16:56:00,
2013-01-09 12:01:00,54.3,33.5,30.19,SW,234,2.2,2.2,45,0.00,,OVC120,0.00,VWS V14.01,2013-01-09 17:01:00,
2013-01-09 12:06:00,54.3,32.9,30.19,WSW,239,3.1,3.1,44,0.00,,OVC120,0.00,VWS V14.01,2013-01-09 17:06:00,
2013-01-09 12:11:00,54.3,32.9,30.19,WSW,245,4.0,4.0,44,0.00,,OVC120,0.00,VWS V14.01,2013-01-09 17:11:00,
2013-01-09 12:16:00,54.3,32.3,30.19,SSW,211,2.7,2.7,43,0.00,,OVC120,0.00,VWS V14.01,2013-01-09 17:16:00,
2013-01-09 12:21:00,54.5,32.5,30.19,WSW,240,5.4,5.4,43,0.00,,OVC120,0.00,VWS V14.01,2013-01-09 17:21:00,
2013-01-09 12:26:00,54.7,32.6,30.19,WSW,249,2.7,2.7,43,0.00,,OVC120,0.00,VWS V14.01,2013-01-09 17:26:00,
2013-01-09 12:32:00,54.9,32.2,30.19,East,96,0.0,0.0,42,0.00,,OVC120,0.00,VWS V14.01,2013-01-09 17:32:00,
2013-01-09 12:37:00,55.2,32.5,30.19,South,174,0.0,0.0,42,0.00,,OVC120,0.00,VWS V14.01,2013-01-09 17:37:00,
2013-01-09 12:42:00,55.4,32.1,30.19,South,174,0.0,0.0,41,0.00,,OVC120,0.00,VWS V14.01,2013-01-09 17:42:00,
2013-01-09 12:47:00,55.2,30.7,30.16,East,99,0.0,5.4,39,0.00,,OVC120,0.00,VWS V14.01,2013-01-09 17:47:00,
2013-01-09 12:52:00,55.2,30.7,30.16,SSE,147,0.0,0.0,39,0.00,,OVC120,0.00,VWS V14.01,2013-01-09 17:52:00,
2013-01-09 12:57:00,55.6,31.0,30.16,SSE,147,0.0,0.0,39,0.00,,OVC120,0.00,VWS V14.01,2013-01-09 17:57:00,
2013-01-09 13:02:00,55.6,31.0,30.16,SSE,147,0.0,0.0,39,0.00,,BKN110,0.00,VWS V14.01,2013-01-09 18:02:00,
2013-01-09 13:07:00,55.4,31.5,30.16,SSE,147,0.0,0.0,40,0.00,,BKN110,0.00,VWS V14.01,2013-01-09 18:07:00,
2013-01-09 13:12:00,55.0,31.2,30.16,SSE,147,0.0,0.0,40,0.00,,BKN110,0.00,VWS V14.01,2013-01-09 18:12:00,
2013-01-09 13:17:00,55.0,31.2,30.16,SSE,147,0.0,0.0,40,0.00,,BKN110,0.00,VWS V14.01,2013-01-09 18:17:00,
2013-01-09 13:22:00,54.7,31.5,30.16,SSE,147,0.0,0.0,41,0.00,,BKN110,0.00,VWS V14.01,2013-01-09 18:22:00,
2013-01-09 13:28:00,54.5,31.3,30.16,SSE,147,0.0,0.0,41,0.00,,BKN110,0.00,VWS V14.01,2013-01-09 18:28:00,
2013-01-09 13:33:00,54.5,31.3,30.16,SSE,147,0.0,0.0,41,0.00,,BKN110,0.00,VWS V14.01,2013-01-09 18:33:00,
2013-01-09 13:38:00,54.3,31.7,30.16,SSE,147,0.0,0.0,42,0.00,,BKN110,0.00,VWS V14.01,2013-01-09 18:38:00,
2013-01-09 13:41:00,54.3,31.7,30.16,SSE,147,0.0,0.0,42,0.00,,BKN110,0.00,VWS V14.01,2013-01-09 18:41:00,
2013-01-09 13:42:00,54.3,31.7,30.16,SSE,147,0.0,0.0,42,0.00,,BKN110,0.00,VWS V14.01,2013-01-09 18:42:00,
2013-01-09 13:44:00,54.5,32.5,30.16,SSE,147,0.0,0.0,43,0.00,,BKN110,0.00,VWS V14.01,2013-01-09 18:44:00,
2013-01-09 13:45:00,54.5,32.5,30.16,SSE,147,0.0,0.0,43,0.00,,BKN110,0.00,VWS V14.01,2013-01-09 18:45:00,
2013-01-09 13:48:00,54.5,32.5,30.16,SSE,147,0.0,0.0,43,0.00,,BKN110,0.00,VWS V14.01,2013-01-09 18:48:00,
2013-01-09 13:49:00,54.5,32.5,30.16,SSE,147,0.0,0.0,43,0.00,,BKN110,0.00,VWS V14.01,2013-01-09 18:49:00,
2013-01-09 13:51:00,54.5,32.5,30.16,SSE,147,0.0,0.0,43,0.00,,BKN110,0.00,VWS V14.01,2013-01-09 18:51:00,
2013-01-09 13:56:00,54.5,32.5,30.16,SSE,147,0.0,0.0,43,0.00,,BKN110,0.00,VWS V14.01,2013-01-09 18:56:00,
2013-01-09 14:01:00,54.5,32.5,30.16,SSE,147,0.0,0.0,43,0.00,,OVC100,0.00,VWS V14.01,2013-01-09 19:01:00,
2013-01-09 14:06:00,54.3,32.3,30.16,SSE,147,0.0,0.0,43,0.00,,OVC100,0.00,VWS V14.01,2013-01-09 19:06:00,
2013-01-09 14:12:00,54.3,32.3,30.16,SSE,147,0.0,0.0,43,0.00,,OVC100,0.00,VWS V14.01,2013-01-09 19:12:00,
2013-01-09 14:17:00,54.3,32.3,30.14,SSE,147,0.0,0.0,43,0.00,,OVC100,0.00,VWS V14.01,2013-01-09 19:17:00,
2013-01-09 14:22:00,54.3,32.9,30.14,SSE,147,0.0,0.0,44,0.00,,OVC100,0.00,VWS V14.01,2013-01-09 19:22:00,
2013-01-09 14:27:00,54.3,32.9,30.14,SSE,147,0.0,0.0,44,0.00,,OVC100,0.00,VWS V14.01,2013-01-09 19:27:00,
2013-01-09 14:32:00,54.3,32.9,30.16,SSE,147,0.0,0.0,44,0.00,,OVC100,0.00,VWS V14.01,2013-01-09 19:32:00,
2013-01-09 14:37:00,54.1,32.7,30.16,SSE,147,0.0,0.0,44,0.00,,OVC100,0.00,VWS V14.01,2013-01-09 19:37:00,
2013-01-09 14:42:00,54.1,32.7,30.16,SSE,147,0.0,0.0,44,0.00,,OVC100,0.00,VWS V14.01,2013-01-09 19:42:00,
2013-01-09 14:48:00,54.0,32.6,30.16,SSE,147,0.0,0.0,44,0.00,,OVC100,0.00,VWS V14.01,2013-01-09 19:48:00,
2013-01-09 14:53:00,54.0,32.6,30.16,SSE,147,0.0,0.0,44,0.00,,OVC100,0.00,VWS V14.01,2013-01-09 19:53:00,
2013-01-09 14:58:00,54.1,32.7,30.16,SSE,147,0.0,0.0,44,0.00,,OVC100,0.00,VWS V14.01,2013-01-09 19:58:00,
2013-01-09 15:03:00,54.3,32.9,30.16,SSE,157,0.0,0.0,44,0.00,,OVC110,0.00,VWS V14.01,2013-01-09 20:03:00,
2013-01-09 15:08:00,54.3,32.9,30.16,SSE,156,0.0,0.0,44,0.00,,OVC110,0.00,VWS V14.01,2013-01-09 20:08:00,
2013-01-09 15:13:00,54.5,33.0,30.16,SSE,156,0.0,0.0,44,0.00,,OVC110,0.00,VWS V14.01,2013-01-09 20:13:00,
2013-01-09 15:18:00,54.5,33.0,30.16,SSE,156,0.0,0.0,44,0.00,,OVC110,0.00,VWS V14.01,2013-01-09 20:18:00,
2013-01-09 15:23:00,54.5,33.0,30.16,SSE,156,0.0,0.0,44,0.00,,OVC110,0.00,VWS V14.01,2013-01-09 20:23:00,
2013-01-09 15:28:00,54.5,33.0,30.16,SSE,156,0.0,0.0,44,0.00,,OVC110,0.04,VWS V14.01,2013-01-09 20:28:00,
2013-01-09 15:33:00,54.9,33.4,30.16,SSE,156,0.0,0.0,44,0.00,,OVC110,0.00,VWS V14.01,2013-01-09 20:33:00,
2013-01-09 15:39:00,55.0,33.5,30.16,SSE,156,0.0,0.0,44,0.00,,OVC110,0.00,VWS V14.01,2013-01-09 20:39:00,
2013-01-09 15:44:00,55.0,33.5,30.16,SSE,156,0.0,0.0,44,0.00,,OVC110,0.00,VWS V14.01,2013-01-09 20:44:00,
2013-01-09 15:49:00,55.0,33.0,30.16,SSE,156,0.0,0.0,43,0.00,,OVC110,0.00,VWS V14.01,2013-01-09 20:49:00,
2013-01-09 15:54:00,55.0,33.0,30.16,SSE,156,0.0,0.0,43,0.00,,OVC110,0.00,VWS V14.01,2013-01-09 20:54:00,
2013-01-09 15:59:00,55.0,33.0,30.16,SSE,156,0.0,0.0,43,0.00,,OVC110,0.00,VWS V14.01,2013-01-09 20:59:00,
2013-01-09 16:04:00,54.9,32.2,30.16,SSE,156,0.0,0.0,42,0.00,,OVC110,0.00,VWS V14.01,2013-01-09 21:04:00,
2013-01-09 16:09:00,54.9,32.2,30.16,SSE,156,0.0,0.0,42,0.00,,OVC110,0.00,VWS V14.01,2013-01-09 21:09:00,
2013-01-09 16:14:00,54.7,32.1,30.16,SSE,156,0.0,0.0,42,0.00,,OVC110,0.00,VWS V14.01,2013-01-09 21:14:00,
2013-01-09 16:19:00,54.7,32.1,30.16,SSE,156,0.0,0.0,42,0.00,,OVC110,0.00,VWS V14.01,2013-01-09 21:19:00,
2013-01-09 16:24:00,54.5,31.3,30.16,SSE,156,0.0,0.0,41,0.00,,OVC110,0.00,VWS V14.01,2013-01-09 21:24:00,
2013-01-09 16:29:00,54.3,31.1,30.16,SSE,156,0.0,0.0,41,0.00,,OVC110,0.00,VWS V14.01,2013-01-09 21:29:00,
2013-01-09 16:34:00,54.3,31.1,30.16,SSE,156,0.0,0.0,41,0.00,,OVC110,0.00,VWS V14.01,2013-01-09 21:34:00,
2013-01-09 16:40:00,54.3,31.1,30.16,SSE,156,0.0,0.0,41,0.00,,OVC110,0.00,VWS V14.01,2013-01-09 21:40:00,
2013-01-09 16:45:00,54.3,31.1,30.16,SSE,156,0.0,0.0,41,0.00,,OVC110,0.00,VWS V14.01,2013-01-09 21:45:00,
2013-01-09 16:50:00,54.3,31.1,30.16,SSE,156,2.7,2.7,41,0.00,,OVC110,0.00,VWS V14.01,2013-01-09 21:50:00,
2013-01-09 16:55:00,54.3,31.1,30.16,SSE,156,2.2,2.2,41,0.00,,OVC110,0.00,VWS V14.01,2013-01-09 21:55:00,
2013-01-09 17:00:00,54.3,31.1,30.16,SSE,156,0.0,0.0,41,0.00,,OVC110,0.00,VWS V14.01,2013-01-09 22:00:00,
2013-01-09 17:05:00,54.3,31.1,30.16,SSE,156,0.0,0.0,41,0.00,,OVC100,0.00,VWS V14.01,2013-01-09 22:05:00,
2013-01-09 17:10:00,54.1,31.0,30.16,SSE,156,0.0,0.0,41,0.00,,OVC100,0.00,VWS V14.01,2013-01-09 22:10:00,
2013-01-09 17:15:00,54.1,31.0,30.16,SSE,156,0.0,0.0,41,0.00,,OVC100,0.00,VWS V14.01,2013-01-09 22:15:00,
2013-01-09 17:20:00,53.6,30.5,30.16,SSE,156,0.0,0.0,41,0.00,,OVC100,0.00,VWS V14.01,2013-01-09 22:20:00,
2013-01-09 17:25:00,53.6,30.5,30.16,SSE,156,0.0,0.0,41,0.00,,OVC100,0.00,VWS V14.01,2013-01-09 22:25:00,
2013-01-09 17:30:00,53.2,31.3,30.16,SSE,156,2.2,2.2,43,0.00,,OVC100,0.00,VWS V14.01,2013-01-09 22:30:00,
2013-01-09 17:36:00,53.2,31.3,30.16,SSE,156,0.0,0.0,43,0.00,,OVC100,0.00,VWS V14.01,2013-01-09 22:36:00,
2013-01-09 17:41:00,53.2,31.9,30.16,SSE,156,0.0,0.0,44,0.00,,OVC100,0.00,VWS V14.01,2013-01-09 22:41:00,
2013-01-09 17:46:00,53.2,31.9,30.19,SSE,156,0.0,0.0,44,0.00,,OVC100,0.00,VWS V14.01,2013-01-09 22:46:00,
2013-01-09 17:51:00,53.6,32.2,30.19,SSE,156,0.0,0.0,44,0.00,,OVC100,0.00,VWS V14.01,2013-01-09 22:51:00,
2013-01-09 17:56:00,53.6,31.7,30.19,SSE,156,0.0,0.0,43,0.00,,OVC100,0.00,VWS V14.01,2013-01-09 22:56:00,
2013-01-09 18:01:00,53.6,31.7,30.19,SSE,156,0.0,0.0,43,0.00,,BKN100,0.00,VWS V14.01,2013-01-09 23:01:00,
2013-01-09 18:06:00,53.6,31.1,30.19,SSE,156,0.0,0.0,42,0.00,,BKN100,0.00,VWS V14.01,2013-01-09 23:06:00,
2013-01-09 18:11:00,53.6,31.7,30.19,SSE,156,0.0,0.0,43,0.00,,BKN100,0.00,VWS V14.01,2013-01-09 23:11:00,
2013-01-09 18:16:00,53.6,31.7,30.19,SSE,156,0.0,0.0,43,0.00,,BKN100,0.00,VWS V14.01,2013-01-09 23:16:00,
2013-01-09 18:21:00,53.8,31.2,30.19,SSE,156,0.0,0.0,42,0.00,,BKN100,0.00,VWS V14.01,2013-01-09 23:21:00,
2013-01-09 18:26:00,53.8,31.2,30.19,SSE,156,0.0,0.0,42,0.00,,BKN100,0.00,VWS V14.01,2013-01-09 23:26:00,
2013-01-09 18:31:00,54.0,31.4,30.19,SSE,156,0.0,0.0,42,0.00,,BKN100,0.00,VWS V14.01,2013-01-09 23:31:00,
2013-01-09 18:36:00,54.0,31.4,30.19,SSE,156,0.0,0.0,42,0.00,,BKN100,0.00,VWS V14.01,2013-01-09 23:36:00,
2013-01-09 18:41:00,54.0,30.8,30.19,SSE,156,0.0,0.0,41,0.00,,BKN100,0.00,VWS V14.01,2013-01-09 23:41:00,
2013-01-09 18:46:00,54.1,30.4,30.16,SSE,156,0.0,0.0,40,0.00,,BKN100,0.00,VWS V14.01,2013-01-09 23:46:00,
2013-01-09 18:52:00,54.1,30.4,30.16,SSE,156,0.0,0.0,40,0.00,,BKN100,0.00,VWS V14.01,2013-01-09 23:52:00,
2013-01-09 18:57:00,54.1,30.4,30.16,SSE,156,0.0,0.0,40,0.00,,BKN100,0.00,VWS V14.01,2013-01-09 23:57:00,
2013-01-09 19:02:00,54.1,30.4,30.19,SSE,156,0.0,0.0,40,0.00,,FEW120,0.00,VWS V14.01,2013-01-10 00:02:00,
2013-01-09 19:07:00,54.3,29.9,30.19,SSE,156,0.0,0.0,39,0.00,,FEW120,0.00,VWS V14.01,2013-01-10 00:07:00,
2013-01-09 19:12:00,54.5,30.1,30.19,SSE,156,2.2,2.7,39,0.00,,FEW120,0.00,VWS V14.01,2013-01-10 00:12:00,
2013-01-09 19:17:00,54.7,30.2,30.16,North,357,2.7,2.7,39,0.00,,FEW120,0.00,VWS V14.01,2013-01-10 00:17:00,
2013-01-09 19:22:00,54.7,30.2,30.16,North,357,2.7,2.7,39,0.00,,FEW120,0.00,VWS V14.01,2013-01-10 00:22:00,
2013-01-09 19:27:00,55.0,29.9,30.16,North,357,0.0,0.0,38,0.00,,FEW120,0.00,VWS V14.01,2013-01-10 00:27:00,
2013-01-09 19:32:00,55.0,29.3,30.16,North,357,0.0,0.0,37,0.00,,FEW120,0.00,VWS V14.01,2013-01-10 00:32:00,
2013-01-09 19:37:00,55.2,29.4,30.16,North,357,0.0,0.0,37,0.00,,FEW120,0.00,VWS V14.01,2013-01-10 00:37:00,
2013-01-09 19:42:00,55.2,29.4,30.16,North,357,0.0,0.0,37,0.00,,FEW120,0.00,VWS V14.01,2013-01-10 00:42:00,
2013-01-09 19:48:00,55.2,29.4,30.16,North,357,0.0,0.0,37,0.00,,FEW120,0.00,VWS V14.01,2013-01-10 00:48:00,
2013-01-09 19:53:00,55.2,29.4,30.16,North,357,0.0,0.0,37,0.00,,FEW120,0.00,VWS V14.01,2013-01-10 00:53:00,
2013-01-09 19:58:00,55.6,29.1,30.16,North,357,0.0,0.0,36,0.00,,FEW120,0.00,VWS V14.01,2013-01-10 00:58:00,
2013-01-09 20:03:00,54.9,28.4,30.16,North,357,0.0,0.0,36,0.00,,CLR,0.00,VWS V14.01,2013-01-10 01:03:00,
2013-01-09 20:08:00,54.0,29.0,30.16,North,357,0.0,0.0,38,0.00,,CLR,0.00,VWS V14.01,2013-01-10 01:08:00,
2013-01-09 20:13:00,53.8,29.4,30.16,North,357,0.0,0.0,39,0.00,,CLR,0.00,VWS V14.01,2013-01-10 01:13:00,
2013-01-09 20:18:00,53.8,30.0,30.16,North,357,0.0,0.0,40,0.00,,CLR,0.00,VWS V14.01,2013-01-10 01:18:00,
2013-01-09 21:07:00,53.6,30.5,30.19,East,89,0.0,0.0,41,0.00,,CLR,0.00,VWS V14.01,2013-01-10 02:07:00,
2013-01-09 21:12:00,53.4,30.3,30.19,East,88,0.0,0.0,41,0.00,,CLR,0.00,VWS V14.01,2013-01-10 02:12:00,
2013-01-09 21:17:00,53.2,30.2,30.19,East,88,0.0,0.0,41,0.00,,CLR,0.00,VWS V14.01,2013-01-10 02:17:00,
2013-01-09 21:22:00,53.1,31.2,30.19,East,88,0.0,0.0,43,0.00,,CLR,0.00,VWS V14.01,2013-01-10 02:22:00,
2013-01-09 21:28:00,53.1,31.2,30.19,East,88,0.0,0.0,43,0.00,,CLR,0.00,VWS V14.01,2013-01-10 02:28:00,
2013-01-09 21:33:00,53.4,30.9,30.19,East,88,0.0,0.0,42,0.00,,CLR,0.00,VWS V14.01,2013-01-10 02:33:00,
2013-01-09 21:38:00,53.6,30.5,30.19,East,88,0.0,0.0,41,0.00,,CLR,0.00,VWS V14.01,2013-01-10 02:38:00,
2013-01-09 21:43:00,53.8,30.0,30.19,East,88,0.0,0.0,40,0.00,,CLR,0.00,VWS V14.01,2013-01-10 02:43:00,
2013-01-09 21:48:00,53.8,30.0,30.19,East,88,0.0,0.0,40,0.00,,CLR,0.00,VWS V14.01,2013-01-10 02:48:00,
2013-01-09 21:53:00,53.8,30.0,30.19,East,88,0.0,0.0,40,0.00,,CLR,0.00,VWS V14.01,2013-01-10 02:53:00,
2013-01-09 21:58:00,53.8,30.0,30.19,East,88,0.0,0.0,40,0.00,,CLR,0.00,VWS V14.01,2013-01-10 02:58:00,
2013-01-09 22:03:00,54.0,29.6,30.19,East,88,0.0,0.0,39,0.00,,CLR,0.00,VWS V14.01,2013-01-10 03:03:00,
2013-01-09 22:08:00,53.8,29.4,30.19,East,88,0.0,0.0,39,0.00,,CLR,0.00,VWS V14.01,2013-01-10 03:08:00,
2013-01-09 22:14:00,53.8,29.4,30.19,East,88,0.0,0.0,39,0.00,,CLR,0.00,VWS V14.01,2013-01-10 03:14:00,
2013-01-09 22:19:00,53.8,30.0,30.19,East,88,0.0,0.0,40,0.00,,CLR,0.00,VWS V14.01,2013-01-10 03:19:00,
2013-01-09 22:24:00,53.6,29.9,30.19,East,88,0.0,0.0,40,0.00,,CLR,0.00,VWS V14.01,2013-01-10 03:24:00,
2013-01-09 22:29:00,53.4,29.7,30.22,East,88,0.0,0.0,40,0.00,,CLR,0.00,VWS V14.01,2013-01-10 03:29:00,
2013-01-09 22:34:00,53.2,30.2,30.22,East,88,0.0,0.0,41,0.00,,CLR,0.00,VWS V14.01,2013-01-10 03:34:00,
2013-01-09 22:39:00,53.1,30.6,30.22,East,88,0.0,0.0,42,0.00,,CLR,0.00,VWS V14.01,2013-01-10 03:39:00,
2013-01-09 22:44:00,52.9,30.4,30.22,East,88,0.0,0.0,42,0.00,,CLR,0.00,VWS V14.01,2013-01-10 03:44:00,
2013-01-09 22:49:00,52.9,31.0,30.22,East,88,0.0,0.0,43,0.00,,CLR,0.00,VWS V14.01,2013-01-10 03:49:00,
2013-01-09 22:54:00,52.9,31.6,30.22,East,88,0.0,0.0,44,0.00,,CLR,0.00,VWS V14.01,2013-01-10 03:54:00,
2013-01-09 22:59:00,52.9,31.6,30.22,East,88,0.0,0.0,44,0.00,,CLR,0.00,VWS V14.01,2013-01-10 03:59:00,
2013-01-09 23:04:00,52.9,31.6,30.22,East,88,0.0,0.0,44,0.00,,CLR,0.00,VWS V14.01,2013-01-10 04:04:00,
2013-01-09 23:09:00,52.9,30.4,30.22,East,88,0.0,0.0,42,0.00,,CLR,0.00,VWS V14.01,2013-01-10 04:09:00,
2013-01-09 23:15:00,52.5,30.1,30.22,East,88,0.0,0.0,42,0.00,,CLR,0.00,VWS V14.01,2013-01-10 04:15:00,
2013-01-09 23:20:00,52.5,31.2,30.22,East,88,0.0,0.0,44,0.00,,CLR,0.00,VWS V14.01,2013-01-10 04:20:00,
2013-01-09 23:25:00,52.3,31.1,30.22,East,88,0.0,0.0,44,0.00,,CLR,0.00,VWS V14.01,2013-01-10 04:25:00,
2013-01-09 23:30:00,52.9,32.7,30.22,NNW,345,2.2,2.2,46,0.00,,CLR,0.00,VWS V14.01,2013-01-10 04:30:00,
2013-01-09 23:35:00,52.7,30.9,30.22,NNW,345,0.0,0.0,43,0.00,,CLR,0.00,VWS V14.01,2013-01-10 04:35:00,
2013-01-09 23:40:00,52.5,30.7,30.22,NNW,345,0.0,0.0,43,0.00,,CLR,0.00,VWS V14.01,2013-01-10 04:40:00,
2013-01-09 23:45:00,52.2,30.9,30.22,NNW,345,0.0,0.0,44,0.00,,CLR,0.00,VWS V14.01,2013-01-10 04:45:00,
2013-01-09 23:50:00,52.0,31.3,30.22,NNW,345,0.0,0.0,45,0.00,,CLR,0.00,VWS V14.01,2013-01-10 04:50:00,
2013-01-09 23:55:00,51.8,31.7,30.22,NNW,345,0.0,0.0,46,0.00,,CLR,0.00,VWS V14.01,2013-01-10 04:55:00,